Location: Bannatyne
(13.0833°N, 59.5333°W)
Time: 13:55:20
(UTC+00:00)

Vanguard 2 Rocket - Pass Details

Date: 27 January 2020
Orbit: 554 x 3326 km, 32.9° (Epoch: 29 March)

Event Time Altitude Azimuth Distance (km) Brightness Sun altitude
Rises 05:17:07 0° 236° (SW) 3,784 - -73.1°
Reaches altitude 10° 05:20:17 10° 235° (SW) 2,494 - -72.4°
Maximum altitude 05:25:43 81° 148° (SSE) 651 - -71.2°
Drops below altitude 10° 05:29:42 10° 60° (ENE) 1,845 - -70.2°
Sets 05:31:45 0° 60° (ENE) 2,711 - -69.8°
